Regional Weather Roundup
Issued by NWS Sterling, VA

Home | Current Version | Previous Version | Text Only | Print | Product List | Glossary Off
Versions: 1 2 3 4 5 6 7 8 9 10 11 12 13 14 15 16 17 18 19 20 21 22 23 24 25 26 27 28 29 30 31 32 33 34 35 36 37 38 39 40 41 42 43 44 45 46 47 48 49

000
ASUS41 KLWX 191410
RWRLWX

REGIONAL WEATHER ROUNDUP
NATIONAL WEATHER SERVICE BALTIMORE MD/WASHINGTON DC
900 AM EST FRI DEC 19 2014

Note: "FAIR" indicates few or no clouds below 12,000 feet
with no significant weather and/or obstructions to visibility.
 TC=TEMPERATURE CELSIUS

 * =Non NWS site. Station does not report precipitation (e.g. rain,
    snow, etc.), thunder, or fog.

DCZ001-MDZ009-015-VAZ040>042-051-053>054-191500-
WASHINGTON METRO

CITY           SKY/WX    TMP DP  RH WIND       PRES   REMARKS
WASHINGTON NAT CLOUDY    39  22  50 NW12      30.17R
DULLES         PTSUNNY   34  22  61 NW14      30.16S WCI  25
ANDREWS AFB    CLOUDY    35  23  61 NW12      30.15R WCI  27
FT BELVOIR     CLOUDY    36  22  56 NW7       30.18R
QUANTICO       MOSUNNY   37  21  52 N10       30.20R
COLLEGE PARK*  CLOUDY    36  25  64 NW5       30.16R
LEESBURG*      CLOUDY    36  27  69 NW12G20   30.17S WCI  27
MANASSAS*      CLOUDY    36  25  64 NW15      30.18S WCI  26
GAITHERSBURG*  CLOUDY    34  21  60 NW6       30.18R

$$

MDZ006>007-011-014-191500-
BALTIMORE METRO

CITY           SKY/WX    TMP DP  RH WIND       PRES   REMARKS
BWI AIRPORT    CLOUDY    35  23  61 W10       30.14R WCI  27
MD SCIENCE CTR   N/A     36  23  59 MISG      30.15R
MARTIN STATE   CLOUDY    37  27  65 W12       30.16R
ANNAPOLIS      CLOUDY    36  24  62 W6        30.15R
FORT MEADE*    CLOUDY    34  25  69 NW8       30.17R WCI  27

$$

MDZ012-015-019>023-191500-
MARYLAND EASTERN SHORE

CITY           SKY/WX    TMP DP  RH WIND       PRES   REMARKS
OCEAN CITY     MOSUNNY   37  26  64 NW9       30.12S
SALISBURY      CLOUDY    39  26  59 NW10      30.13S
BAY BRIDGE AP*   N/A     36  25  64 NW10      30.15S WCI  28
CAMBRIDGE*     CLOUDY    37  27  65 NW12G18   30.14S
EASTON*        CLOUDY    37  28  70 NW12      30.18R

$$

MDZ017>025-191500-
SOUTHERN MARYLAND

CITY           SKY/WX    TMP DP  RH WIND       PRES   REMARKS
PATUXENT RIVER PTSUNNY   36  22  56 NW12      30.16R WCI  28
ST INIGOES     PTSUNNY   38  21  50 NW12      30.16R
LEONARDTOWN*   CLOUDY    34  23  64 W5        30.18R

$$

MDZ003>005-191500-
NORTH CENTRAL MARYLAND

CITY           SKY/WX    TMP DP  RH WIND       PRES   REMARKS
FREDERICK*     CLOUDY    37  21  52 NW8       30.18R
HAGERSTOWN APT CLOUDY    34  23  64 W13       30.15R WCI  25
WESTMINSTER*   CLOUDY    34  25  69 W6        30.12R

$$

MDZ501>502-191500-
WESTERN MARYLAND

CITY           SKY/WX    TMP DP  RH WIND       PRES   REMARKS
OAKLAND*       CLOUDY    21 N/A N/A W5        30.07S HAZE
CUMBERLAND*    CLOUDY    34  23  64 CALM      30.22S

$$

VAZ025>031-191500-
SHENANDOAH VALLEY

CITY           SKY/WX    TMP DP  RH WIND       PRES   REMARKS
WINCHESTER*    CLOUDY    34  19  55 NW13G25   30.17S WCI  25
FRONT ROYAL*   PTSUNNY   32  23  69 NW3       30.16S
LURAY*         CLOUDY    32  28  86 S5        30.16S
NEW MARKET*    FAIR      31  25  77 NE5       30.16R
STAUNTON*      SUNNY     29  24  81 W3        30.16R
WAYNESBORO*    FAIR      30  22  72 NW3       30.13R

$$

WVZ021-048>050-054>055-191500-
EASTERN WEST VIRGINIA PANHANDLE

CITY           SKY/WX    TMP DP  RH WIND       PRES   REMARKS
MARTINSBURG    CLOUDY    35  20  54 NW16      30.17R WCI  25
PETERSBURG*    CLOUDY    31  20  64 N6        30.19S

$$

VAZ036>039-050-191500-
CENTRAL FOOTHILLS

CITY           SKY/WX    TMP DP  RH WIND       PRES   REMARKS
CHARLOTTESVILL SUNNY     31  25  78 S6        30.16R
CULPEPER*      SUNNY     36  27  69 N6        30.17S
ORANGE*        SUNNY     32  28  86 CALM      30.17R
GORDONSVILLE*  FAIR      30  25  81 CALM      30.17R
WARRENTON*     PTSUNNY   37  29  73 N9        30.16S

$$

VAZ055>057-191500-
NORTH AND CENTRAL PIEDMONT

CITY           SKY/WX    TMP DP  RH WIND       PRES   REMARKS
FREDERICKSBRG* SUNNY     35  26  69 CALM      30.17S
STAFFORD*      SUNNY     35  22  58 N15       30.21S WCI  25

$$

NCZ024-NYZ072-PAZ021-071-VAZ022-071-191500-
OTHER REGIONAL OBSERVATIONS

CITY           SKY/WX    TMP DP  RH WIND       PRES   REMARKS
NEW YORK CITY  CLOUDY    36  20  52 N5        30.07R
PHILADELPHIA   CLOUDY    38  25  59 W10       30.10R
PITTSBURGH     LGT SNOW  28  26  92 W6        30.19R FOG
ROANOKE        SUNNY     35  21  56 NW10      30.18R WCI  27
RICHMOND       SUNNY     37  23  56 N5        30.18R
RALEIGH        MOSUNNY   42  24  49 CALM      30.18R

$$

ANZ530>537-191500-
MARINE OBSERVATIONS

STATION/POSITION TIME  TEMP    WIND        PRES
                       AIR SEA DIR/SP/G
                 (UTC) (F)     (DEG/KT/KT) (MB)
THOMAS PT LIGHT  1400   36 41  300/ 14/ 17 1022.2R
BALT KEY BRIDGE  1400   36     300/ 13/ 15 1020.6R
COVE POINT       1400   35     330/ 12/ 15 1021.1R
LEWISETTA        1400   37 41  340/ 14/ 19 1021.2R
SOLOMONS ISLAND  1400      44                N/A
PINEY POINT      1400          360/ 17/ 21   N/A

$$




USA.gov is the U.S. government's official web portal to all federal, state and local government web resources and services.